Vacaville, CA

6:20 AM PDT on March 28, 2017 (GMT -0700)
Nut Tree

Weather History for KVCB - April, 2013

Change the Weather History Date:

Monday, April 29, 2013

  Actual Average Record
Temperature  
Mean Temperature 76 °F -  
Max Temperature 93 °F 78 °F 93 °F (2013)
Min Temperature 61 °F 48 °F 32 °F (1967)
Cooling Degree Days 11    
Growing Degree Days 26 (Base 50)    
Moisture  
Dew Point 44 °F    
Average Humidity 32    
Maximum Humidity 70    
Minimum Humidity 13    
Precipitation  
Precipitation 0.00 in - - ()
Sea Level Pressure  
Sea Level Pressure 29.82 in    
Wind  
Wind Speed 5 mph (NNW)    
Max Wind Speed 10 mph    
Max Gust Speed -    
Visibility 10 miles    
Events      
Averages and records for this station are not official NWS values.
T = Trace of Precipitation, MM = Missing Value Source: NWS Daily Summary

Daily Weather History Graph

Daily Weather History Graph

Search for Another Location

Airport or City:

Trip Planner

Search our weather history database for the weather conditions in past years. The results will help you decide how hot, cold, wet, or windy it might be!

Date:

Astronomy

Apr. 29, 2013 Rise Set
Actual Time 6:12 AM PDT 7:57 PM PDT
Civil Twilight 5:44 AM PDT 8:26 PM PDT
Nautical Twilight 5:10 AM PDT 9:00 PM PDT
Astronomical Twilight 4:33 AM PDT 9:37 PM PDT
Moon No Moon Rise 9:41 AM PDT (4/29)
Length of Visible Light 14h 41m
Length of Day
13h 44m
Waning Gibbous, 79% of the Moon is Illuminated
Apr 29
Waning Gibbous
May 2
Last Quarter
May 9
New
May 17
First Quarter
May 24
Full

Hourly Weather History & Observations

Time (PDT) Temp. Dew Point Humidity Pressure Visibility Wind Dir Wind Speed Gust Speed Precip Events Conditions
12:53 AM 63.0 °F 51.1 °F 65% 29.86 in 10.0 mi Calm Calm - N/A   Clear
1:53 AM 61.0 °F 51.1 °F 70% 29.86 in 10.0 mi NNW 5.8 mph - N/A   Clear
2:53 AM 72.0 °F 43.0 °F 35% 29.86 in 10.0 mi NNW 5.8 mph - N/A   Clear
3:53 AM 73.0 °F 41.0 °F 31% 29.85 in 10.0 mi North 8.1 mph - N/A   Clear
4:53 AM 70.0 °F 39.9 °F 33% 29.85 in 10.0 mi North 6.9 mph - N/A   Clear
5:53 AM 68.0 °F 39.0 °F 35% 29.86 in 10.0 mi NW 3.5 mph - N/A   Clear
6:53 AM 69.1 °F 37.9 °F 32% 29.88 in 10.0 mi Calm Calm - N/A   Clear
7:53 AM 75.9 °F 39.9 °F 27% 29.88 in 10.0 mi NNW 4.6 mph - N/A   Clear
8:53 AM 82.0 °F 39.9 °F 22% 29.89 in 10.0 mi Variable 5.8 mph - N/A   Clear
9:53 AM 82.9 °F 41.0 °F 23% 29.89 in 10.0 mi Variable 6.9 mph - N/A   Clear
10:53 AM 84.9 °F 42.1 °F 22% 29.88 in 10.0 mi NE 5.8 mph - N/A   Clear
11:53 AM 89.1 °F 41.0 °F 19% 29.87 in 10.0 mi North 10.4 mph - N/A   Clear
12:53 PM 90.0 °F 42.1 °F 19% 29.85 in 10.0 mi NNE 8.1 mph - N/A   Clear
1:53 PM 91.9 °F 35.1 °F 13% 29.83 in 10.0 mi NNE 8.1 mph - N/A   Clear
2:53 PM 91.0 °F 37.9 °F 15% 29.81 in 10.0 mi NE 5.8 mph - N/A   Clear
3:53 PM 91.9 °F 39.9 °F 16% 29.78 in 10.0 mi Variable 6.9 mph - N/A   Clear
4:53 PM 91.0 °F 43.0 °F 19% 29.76 in 10.0 mi Calm Calm - N/A   Clear
5:53 PM 89.1 °F 52.0 °F 28% 29.75 in 10.0 mi WSW 10.4 mph - N/A   Clear
6:53 PM 86.0 °F 51.1 °F 30% 29.74 in 10.0 mi West 9.2 mph - N/A   Clear
7:53 PM 79.0 °F 46.9 °F 32% 29.74 in 10.0 mi Calm Calm - N/A   Clear
8:53 PM 79.0 °F 48.0 °F 34% 29.74 in 10.0 mi North 5.8 mph - N/A   Clear
9:53 PM 71.1 °F 48.9 °F 45% 29.75 in 10.0 mi NNW 3.5 mph - N/A   Clear
10:53 PM 70.0 °F 48.0 °F 46% 29.75 in 10.0 mi NW 5.8 mph - N/A   Clear
11:53 PM 68.0 °F 51.1 °F 55% 29.76 in 10.0 mi Calm Calm - N/A   Clear